Regional Weather Roundup
Issued by NWS

Home | Current Version | Previous Version | Text Only | Print | Product List | Glossary On
Versions: 1 2 3 4 5 6 7 8 9 10 11 12 13 14 15 16 17 18 19 20 21 22 23 24 25 26 27 28 29 30 31 32 33 34 35 36 37 38 39 40 41 42 43 44 45 46 47 48 49 50
000
ASUS46 KSEW 010210
RWRWA

WASHINGTON REGIONAL WEATHER ROUNDUP
NATIONAL WEATHER SERVICE SEATTLE WA
700 PM PDT THU JUL 31 2014

NOTE:"FAIR" INDICATES FEW OR NO CLOUDS BELOW 12,000 FEET WITH NO
SIGNIFICANT WEATHER AND/OR OBSTRUCTIONS TO VISIBILITY.

WAZ505-507>509-010300-
SEATTLE, TACOMA, EVERETT, AND VICINITY

CITY           SKY/WX    TMP DP  RH WIND       PRES   REMARKS
EVERETT        SUNNY     71  50  47 N5        30.05F
BOEING FIELD   MOSUNNY   85  50  29 NW7       30.01S
RENTON         SUNNY     82  60  47 NW12      30.00S
SEATAC AIRPORT MOSUNNY   83  51  33 N12       30.04S
JBLM-MCCHORD   SUNNY     83  48  28 N10       30.02F
PUYALLUP       FAIR      82  52  34 CALM      30.03F
JBLM-FT LEWIS  SUNNY     85  40  20 N12       30.01F
TACOMA NARROWS SUNNY     81  48  31 N10       30.02F
$$

WAZ001-503-506-510-514-515-010300-
NORTH INTERIOR

CITY           SKY/WX    TMP DP  RH WIND       PRES   REMARKS
BELLINGHAM     SUNNY     79  55  43 CALM      30.01F
FRIDAY HARBOR  SUNNY     75  50  41 SW5       30.03F
EASTSOUND      SUNNY     73  59  60 CALM      30.00F
PORT ANGELES   SUNNY     73  49  42 NW7       30.05F
NAS WHIDBEY    MOSUNNY   63  52  67 SW3       30.05S
BURLINGTON     SUNNY     77  55  47 W5        30.03F
$$

WAZ020-022-039-040-504-511-512-010300-
SOUTHWEST INTERIOR

CITY           SKY/WX    TMP DP  RH WIND       PRES   REMARKS
SHELTON        SUNNY     88  53  30 E5        29.98F
OLYMPIA        SUNNY     87  49  26 NE9       30.00F
CHEHALIS       FAIR      88  61  40 VRB6      29.99S
KELSO          MOSUNNY   84  57  39 W10G17    29.99S
VANCOUVER      MOSUNNY   88  56  33 NW10      29.93S
SCAPPOOSE, OR  MOSUNNY   88  53  30 NW7G20    29.93F
PORTLAND, OR   MOSUNNY   89  57  33 NW15G23   29.93S
$$

WAZ021-516-517-010300-
WASHINGTON COAST

CITY           SKY/WX    TMP DP  RH WIND       PRES   REMARKS
FORKS          SUNNY     71  50  47 NW6       30.08F
HOQUIAM        SUNNY     71  49  45 W8G21     30.04F
ASTORIA, OR    LGT RAIN  68  51  54 NW16      30.04F
$$

WAZ019-023-024-040-518-519-010300-
CASCADE MOUNTAINS AND COLUMBIA GORGE

CITY           SKY/WX    TMP DP  RH WIND       PRES   REMARKS
STAMPEDE PASS  NOT AVBL
TROUTDALE, OR  MOSUNNY   90  56  31 W5        29.91S
THE DALLES, OR PTSUNNY   94  61  33 NW17G25   29.83S HX  94
$$

WAZ026-027-041>044-520-521-010300-
EAST SLOPES

CITY           SKY/WX    TMP DP  RH WIND       PRES   REMARKS
OMAK           SUNNY     96  30   9 SW6       29.90F HX  90
WENATCHEE      MOSUNNY   96  43  16 E9        29.91S HX  92
ELLENSBURG     MOSUNNY  101  39  12 SW10      29.95S HX  96
YAKIMA         MOSUNNY   92  47  21 E3        29.91F
$$

WAZ028-034-035-010300-
COLUMBIA BASIN

CITY           SKY/WX    TMP DP  RH WIND       PRES   REMARKS
EPHRATA        SUNNY     98  35  11 S12       29.91F HX  93
MOSES LAKE     SUNNY     98  33  10 S9        29.92F HX  92
PASCO          MOSUNNY   98  50  19 SE9       29.87F HX  95
HERMISTON, OR  SUNNY     96  49  20 E10       29.88F HX  93
$$

WAZ036>038-010300-
NORTHEAST WASHINGTON

CITY           SKY/WX    TMP DP  RH WIND       PRES   REMARKS
SPOKANE GEIGER PTSUNNY   93  36  13 SW18      29.99S
SPOKANE FELTS  PTSUNNY   96  26   8 SW15G22   29.96S HX  90
FAIRCHILD AFB  PTSUNNY   93  34  12 SW15      30.00F
COEURDALENE,ID MOSUNNY   88  48  25 CALM      29.94F
DEER PARK      PTSUNNY   95  32  11 W9        29.97S HX  90
$$

WAZ029>033-010300-
SOUTHEAST WASHINGTON

CITY           SKY/WX    TMP DP  RH WIND       PRES   REMARKS
PULLMAN        PTSUNNY   88  40  18 W10       30.04S
LEWISTON, ID   CLOUDY    94  43  17 W10G20    29.93S HX  90
WALLA WALLA    PTSUNNY   90  47  22 E6        29.93F
PENDLETON, OR  MOSUNNY   92  44  19 SE7       29.93F
$$



USA.gov is the U.S. government's official web portal to all federal, state and local government web resources and services.